Time,TemperatureF,DewpointF,PressureIn,WindDirection,WindDirectionDegrees,WindSpeedMPH,WindSpeedGustMPH,Humidity,HourlyPrecipIn,Conditions,Clouds,dailyrainin,SoftwareType,DateUTC
2013-11-02 00:13:00,49.0,48.0,29.70,NW,318,0.0,0.0,95,0.00,,,0.19,,2013-11-02 04:13:00,
2013-11-02 00:24:00,49.0,48.0,29.70,NW,318,0.0,0.0,95,0.00,,,-99.99,,2013-11-02 04:24:00,
2013-11-02 00:43:00,49.0,48.0,29.68,NW,318,0.0,0.0,96,0.00,,,0.19,,2013-11-02 04:43:00,
2013-11-02 00:54:00,48.0,47.0,29.69,NW,318,0.0,0.0,96,0.00,,,0.19,,2013-11-02 04:54:00,
2013-11-02 01:22:00,48.0,47.0,29.68,NW,318,0.0,0.0,96,-99.99,,,0.19,,2013-11-02 05:22:00,
2013-11-02 01:42:00,47.0,46.0,29.68,NW,318,0.0,0.0,96,0.00,,,0.19,,2013-11-02 05:42:00,
2013-11-02 01:52:00,47.0,46.0,29.68,NW,318,0.0,0.0,96,0.00,,,0.19,,2013-11-02 05:52:00,
2013-11-02 02:12:00,47.0,46.0,29.68,NW,318,0.0,0.0,97,0.00,,,0.19,,2013-11-02 06:12:00,
2013-11-02 02:22:00,47.0,46.0,29.68,NW,318,0.0,0.0,97,0.00,,,0.19,,2013-11-02 06:22:00,
2013-11-02 02:52:00,47.0,46.0,29.67,NW,318,0.0,0.0,97,0.00,,,0.19,,2013-11-02 06:52:00,
2013-11-02 03:12:00,46.0,45.0,29.67,NW,318,0.0,0.0,97,0.00,,,0.19,,2013-11-02 07:12:00,
2013-11-02 03:22:00,46.0,45.0,29.66,NW,318,0.0,0.0,97,0.00,,,0.19,,2013-11-02 07:22:00,
2013-11-02 03:42:00,46.0,45.0,29.66,NW,318,0.0,0.0,97,0.00,,,0.19,,2013-11-02 07:42:00,
2013-11-02 03:52:00,46.0,45.0,29.66,NW,318,0.0,0.0,97,0.00,,,0.19,,2013-11-02 07:52:00,
2013-11-02 04:12:00,47.0,46.0,29.65,NW,318,0.0,0.0,97,0.00,,,0.19,,2013-11-02 08:12:00,
2013-11-02 04:22:00,47.0,46.0,29.66,NW,318,0.0,0.0,97,0.00,,,0.18,,2013-11-02 08:22:00,
2013-11-02 04:42:00,47.0,46.0,29.67,NW,318,0.0,0.0,97,0.00,,,0.18,,2013-11-02 08:42:00,
2013-11-02 04:52:00,47.0,46.0,29.67,NW,318,0.0,0.0,97,0.00,,,0.18,,2013-11-02 08:52:00,
2013-11-02 05:11:00,48.0,47.0,29.67,NW,318,0.0,0.0,97,0.00,,,0.18,,2013-11-02 09:11:00,
2013-11-02 05:21:00,47.0,46.0,29.67,NW,318,0.0,0.0,97,0.00,,,0.18,,2013-11-02 09:21:00,
2013-11-02 05:43:00,47.0,46.0,29.67,NW,318,0.0,0.0,97,0.00,,,0.18,,2013-11-02 09:43:00,
2013-11-02 05:53:00,47.0,46.0,29.67,NW,318,0.0,0.0,97,0.00,,,0.18,,2013-11-02 09:53:00,
2013-11-02 06:13:00,46.0,45.0,29.67,NW,318,0.0,0.0,97,0.00,,,0.18,,2013-11-02 10:13:00,
2013-11-02 06:23:00,47.0,46.0,29.66,NW,318,0.0,0.0,97,0.00,,,0.18,,2013-11-02 10:23:00,
2013-11-02 06:53:00,47.0,46.0,29.67,NW,318,0.0,0.0,97,0.00,,,0.17,,2013-11-02 10:53:00,
2013-11-02 07:22:00,47.0,46.0,29.67,NW,318,0.0,0.0,96,0.00,,,0.15,,2013-11-02 11:22:00,
2013-11-02 07:42:00,48.0,47.0,29.68,NW,318,0.0,0.0,96,0.00,,,0.14,,2013-11-02 11:42:00,
2013-11-02 07:52:00,48.0,47.0,29.69,NW,318,0.0,0.0,96,0.00,,,0.14,,2013-11-02 11:52:00,
2013-11-02 08:22:00,47.0,46.0,29.70,NW,318,0.0,0.0,95,0.00,,,0.14,,2013-11-02 12:22:00,
2013-11-02 08:42:00,48.0,47.0,29.70,NW,318,0.0,0.0,96,0.00,,,0.14,,2013-11-02 12:42:00,
2013-11-02 08:52:00,48.0,47.0,29.70,NW,318,0.0,0.0,96,0.00,,,0.14,,2013-11-02 12:52:00,
2013-11-02 09:12:00,49.0,48.0,29.70,NW,318,0.0,0.0,95,0.00,,,0.14,,2013-11-02 13:12:00,
2013-11-02 09:22:00,49.0,48.0,29.70,NW,318,0.0,0.0,95,0.00,,,0.14,,2013-11-02 13:22:00,
2013-11-02 09:42:00,50.0,48.0,29.70,NW,318,0.0,0.0,93,0.00,,,0.13,,2013-11-02 13:42:00,
2013-11-02 09:52:00,51.0,49.0,29.70,NW,318,0.0,0.0,92,0.00,,,0.02,,2013-11-02 13:52:00,
2013-11-02 10:11:00,53.0,49.0,29.70,NW,318,0.0,0.0,86,0.00,,,0.00,,2013-11-02 14:11:00,
2013-11-02 10:22:00,54.0,48.0,29.69,NW,318,0.0,0.0,80,0.00,,,0.00,,2013-11-02 14:22:00,
2013-11-02 10:42:00,56.0,49.0,29.69,NW,318,0.0,0.0,76,0.00,,,0.00,,2013-11-02 14:42:00,
2013-11-02 10:52:00,57.0,49.0,29.68,NW,318,0.0,0.0,74,0.00,,,0.00,,2013-11-02 14:52:00,
2013-11-02 11:11:00,58.0,48.0,29.68,NW,318,0.0,0.0,69,0.00,,,0.00,,2013-11-02 15:11:00,
2013-11-02 11:22:00,60.0,49.0,29.68,NW,318,0.0,0.0,68,0.00,,,0.00,,2013-11-02 15:22:00,
2013-11-02 11:43:00,63.0,49.0,29.67,NW,318,0.0,0.0,61,0.00,,,0.00,,2013-11-02 15:43:00,
2013-11-02 11:53:00,65.0,51.0,29.67,NW,318,0.0,0.0,60,0.00,,,0.00,,2013-11-02 15:53:00,
2013-11-02 12:24:00,66.0,50.0,29.66,NW,318,0.0,0.0,56,0.00,,,0.00,,2013-11-02 16:24:00,
2013-11-02 12:43:00,67.0,47.0,29.66,NW,318,0.0,0.0,48,0.00,,,0.00,,2013-11-02 16:43:00,
2013-11-02 12:54:00,68.0,45.0,29.66,NW,318,0.0,0.0,44,0.00,,,0.00,,2013-11-02 16:54:00,
2013-11-02 13:13:00,68.0,43.0,29.65,NW,318,0.0,0.0,40,0.00,,,0.00,,2013-11-02 17:13:00,
2013-11-02 13:22:00,69.0,45.0,29.65,NW,318,0.0,0.0,42,0.00,,,0.00,,2013-11-02 17:22:00,
2013-11-02 13:43:00,68.0,45.0,29.64,NW,318,0.0,0.0,43,0.00,,,0.00,,2013-11-02 17:43:00,
2013-11-02 13:53:00,68.0,45.0,29.64,NW,318,0.0,0.0,43,0.00,,,0.00,,2013-11-02 17:53:00,
2013-11-02 14:12:00,66.0,45.0,29.64,NW,318,0.0,0.0,47,0.00,,,0.00,,2013-11-02 18:12:00,
2013-11-02 14:22:00,66.0,46.0,29.63,NW,318,0.0,0.0,49,0.00,,,0.00,,2013-11-02 18:22:00,
2013-11-02 14:42:00,67.0,45.0,29.63,NW,318,0.0,0.0,45,0.00,,,0.00,,2013-11-02 18:42:00,
2013-11-02 14:52:00,66.0,45.0,29.64,NW,318,0.0,0.0,46,0.00,,,0.00,,2013-11-02 18:52:00,
2013-11-02 15:11:00,65.0,44.0,29.63,NW,318,0.0,0.0,47,0.00,,,0.00,,2013-11-02 19:11:00,
2013-11-02 15:22:00,64.0,43.0,29.64,NW,318,0.0,0.0,47,0.00,,,0.00,,2013-11-02 19:22:00,
2013-11-02 15:42:00,64.0,43.0,29.64,NW,318,0.0,0.0,47,0.00,,,0.00,,2013-11-02 19:42:00,
2013-11-02 15:52:00,65.0,45.0,29.64,NW,318,0.0,0.0,48,0.00,,,0.00,,2013-11-02 19:52:00,
2013-11-02 16:12:00,65.0,44.0,29.64,NW,318,0.0,0.0,47,0.00,,,0.00,,2013-11-02 20:12:00,
2013-11-02 16:22:00,64.0,44.0,29.65,NW,318,0.0,0.0,48,0.00,,,0.00,,2013-11-02 20:22:00,
2013-11-02 16:53:00,63.0,44.0,29.65,NW,318,0.0,0.0,50,0.00,,,0.00,,2013-11-02 20:53:00,
2013-11-02 17:12:00,60.0,47.0,29.67,NW,318,0.0,0.0,62,0.00,,,0.02,,2013-11-02 21:12:00,
2013-11-02 17:22:00,59.0,45.0,29.66,NW,318,0.0,0.0,59,0.00,,,0.02,,2013-11-02 21:22:00,
2013-11-02 17:44:00,60.0,44.0,29.67,NW,318,0.0,0.0,56,0.00,,,0.02,,2013-11-02 21:44:00,
2013-11-02 17:54:00,59.0,42.0,29.67,NW,318,0.0,0.0,54,0.00,,,0.02,,2013-11-02 21:54:00,
2013-11-02 18:24:00,59.0,40.0,29.69,NW,318,0.0,0.0,50,0.00,,,0.02,,2013-11-02 22:24:00,
2013-11-02 18:44:00,58.0,41.0,29.70,NW,318,0.0,0.0,53,0.00,,,0.02,,2013-11-02 22:44:00,
2013-11-02 18:54:00,58.0,42.0,29.70,NW,318,0.0,0.0,55,0.00,,,0.02,,2013-11-02 22:54:00,
2013-11-02 19:12:00,56.0,41.0,29.71,NW,318,0.0,0.0,58,0.00,,,0.02,,2013-11-02 23:12:00,
2013-11-02 19:22:00,56.0,40.0,29.71,NW,318,0.0,0.0,54,0.00,,,0.02,,2013-11-02 23:22:00,
2013-11-02 19:42:00,57.0,40.0,29.72,NW,318,0.0,0.0,53,0.00,,,0.02,,2013-11-02 23:42:00,
2013-11-02 19:52:00,56.0,39.0,29.72,NW,318,0.0,0.0,53,0.00,,,0.02,,2013-11-02 23:52:00,
2013-11-02 20:11:00,55.0,40.0,29.73,NW,318,0.0,0.0,56,0.00,,,0.02,,2013-11-03 00:11:00,
2013-11-02 20:22:00,54.0,40.0,29.73,NW,318,0.0,0.0,58,0.00,,,0.02,,2013-11-03 00:22:00,
2013-11-02 20:52:00,51.0,40.0,29.74,NW,318,0.0,0.0,67,0.00,,,0.02,,2013-11-03 00:52:00,
2013-11-02 21:11:00,50.0,41.0,29.75,NW,318,0.0,0.0,72,0.00,,,0.02,,2013-11-03 01:11:00,
2013-11-02 21:22:00,49.0,41.0,29.76,NW,318,0.0,0.0,74,0.00,,,0.02,,2013-11-03 01:22:00,
2013-11-02 21:42:00,48.0,41.0,29.76,NW,318,0.0,0.0,77,0.00,,,0.02,,2013-11-03 01:42:00,
2013-11-02 21:52:00,48.0,41.0,29.76,NW,318,0.0,0.0,77,0.00,,,0.02,,2013-11-03 01:52:00,
2013-11-02 22:11:00,47.0,41.0,29.77,NW,318,0.0,0.0,79,0.00,,,0.02,,2013-11-03 02:11:00,
2013-11-02 22:22:00,46.0,41.0,29.77,NW,318,0.0,0.0,81,0.00,,,0.02,,2013-11-03 02:22:00,
2013-11-02 22:52:00,46.0,41.0,29.78,NW,318,0.0,0.0,83,0.00,,,0.02,,2013-11-03 02:52:00,
2013-11-02 23:12:00,45.0,41.0,29.78,NW,318,0.0,0.0,85,0.00,,,0.02,,2013-11-03 03:12:00,
2013-11-02 23:22:00,45.0,41.0,29.78,NW,318,0.0,0.0,85,0.00,,,0.02,,2013-11-03 03:22:00,
2013-11-02 23:45:00,44.0,40.0,29.79,NW,318,0.0,0.0,87,0.00,,,0.02,,2013-11-03 03:45:00,
2013-11-02 23:54:00,44.0,40.0,29.79,NW,318,0.0,0.0,87,0.00,,,0.02,,2013-11-03 03:54:00,